FW1341 Weather Reports


time (UTC)temp
C
wind
direction
speed
KPH
gust
KPH
rain 1hr
cm
rain 24hr
cm
rain mn
cm
humidity
%
barometer
mb
20260505063435 17 201 1.6 9.7 0.00 0.00 0.00 58 1007.7
20260505062934 17 194 0.0 3.2 0.00 0.00 0.00 58 1007.8
20260505062435 17 232 0.0 3.2 0.00 0.00 0.00 58 1007.8
20260505061929 17 199 0.0 0.0 0.00 0.00 0.00 58 1007.7
20260505061429 17 194 0.0 1.6 0.00 0.00 0.00 58 1007.7
20260505060929 17 197 0.0 1.6 0.00 0.00 0.00 58 1007.8
20260505060431 17 203 0.0 1.6 0.00 0.00 0.00 58 1007.7
20260505055928 17 203 0.0 1.6 0.00 0.00 0.00 57 1007.7
20260505054420 17 198 0.0 1.6 0.00 0.00 0.00 57 1007.8
20260505052918 18 188 0.0 4.8 0.00 0.00 0.00 56 1007.9
20260505051914 18 205 1.6 4.8 0.00 0.00 0.00 56 1007.9
20260505051414 18 191 0.0 4.8 0.00 0.00 0.00 56 1007.8
20260505050912 18 162 0.0 1.6 0.00 0.00 0.00 56 1007.9
20260505050410 18 143 1.6 6.4 0.00 0.00 0.00 56 1007.9
20260505041354 19 228 1.6 8.0 0.00 0.00 0.00 53 1007.9
20260505040855 19 203 0.0 8.0 0.00 0.00 0.00 53 1007.9
20260505040354 19 207 0.0 1.6 0.00 0.00 0.00 52 1007.9
20260505035854 19 208 0.0 1.6 0.00 0.00 0.00 52 1007.8
20260505035347 19 210 0.0 3.2 0.00 0.00 0.00 52 1007.8
20260505033849 20 212 0.0 4.8 0.00 0.00 0.00 51 1007.7
20260505033348 20 201 0.0 8.0 0.00 0.00 0.00 51 1007.7
20260505032847 20 190 1.6 9.7 0.00 0.00 0.00 50 1007.8
20260505032346 20 222 1.6 9.7 0.00 0.00 0.00 50 1007.7
20260505031841 20 211 1.6 8.0 0.00 0.00 0.00 49 1007.7
20260505030844 20 297 1.6 9.7 0.00 0.00 0.00 49 1007.7
20260505030341 20 217 3.2 9.7 0.00 0.00 0.00 48 1007.7
20260505025840 20 204 3.2 9.7 0.00 0.00 0.00 48 1007.7
20260505025335 20 186 4.8 11.3 0.00 0.00 0.00 48 1007.6
20260505024335 21 207 3.2 11.3 0.00 0.00 0.00 48 1007.7
20260505023835 21 187 3.2 11.3 0.00 0.00 0.00 48 1007.7
20260505022836 21 204 3.2 11.3 0.00 0.00 0.00 47 1007.6
20260505022329 21 218 1.6 9.7 0.00 0.00 0.00 47 1007.7
20260505021830 21 186 1.6 9.7 0.00 0.00 0.00 47 1007.6
20260505020829 21 269 4.8 14.5 0.00 0.00 0.00 46 1007.4
20260505020329 21 215 3.2 14.5 0.00 0.00 0.00 46 1007.5
20260505015829 21 198 4.8 16.1 0.00 0.00 0.00 45 1007.6
20260505015324 21 187 4.8 16.1 0.00 0.00 0.00 45 1007.5
20260505014825 21 219 3.2 14.5 0.00 0.00 0.00 44 1007.4
20260505014324 21 210 4.8 14.5 0.00 0.00 0.00 44 1007.4
20260505013824 21 201 4.8 14.5 0.00 0.00 0.00 44 1007.2
20260505012823 21 191 4.8 12.9 0.00 0.00 0.00 44 1007.2
20260505012325 21 268 3.2 8.0 0.00 0.00 0.00 44 1007.1
20260505011822 21 205 3.2 9.7 0.00 0.00 0.00 44 1007.0
20260505011322 21 212 1.6 11.3 0.00 0.00 0.00 44 1007.1
20260505010323 22 162 1.6 9.7 0.00 0.00 0.00 44 1007.0
20260505005823 22 203 0.0 4.8 0.00 0.00 0.00 44 1007.0
20260505005323 22 208 0.0 3.2 0.00 0.00 0.00 44 1006.9
20260505004823 22 204 1.6 8.0 0.00 0.00 0.00 44 1006.9
20260505004317 22 192 3.2 14.5 0.00 0.00 0.00 43 1006.8
20260505003817 22 225 4.8 14.5 0.00 0.00 0.00 43 1006.8
20260505003316 22 156 4.8 14.5 0.00 0.00 0.00 43 1006.8
20260505001317 23 226 4.8 12.9 0.00 0.00 0.00 41 1006.7
20260505000810 23 172 6.4 16.1 0.00 0.00 0.00 41 1006.7
20260504235809 23 216 4.8 17.7 0.00 0.00 0.00 41 1006.7
20260504234811 23 183 4.8 12.9 0.00 0.00 0.00 40 1006.6
20260504234312 23 197 4.8 12.9 0.00 0.00 0.00 40 1006.6
20260504233812 23 188 6.4 14.5 0.00 0.00 0.00 39 1006.6
20260504233306 23 212 8.0 16.1 0.00 0.00 0.00 39 1006.5
20260504232304 24 203 4.8 20.9 0.00 0.00 0.00 37 1006.5
20260504231803 24 158 4.8 14.5 0.00 0.00 0.00 36 1006.4
20260504231302 24 236 6.4 19.3 0.00 0.00 0.00 36 1006.4
20260504230802 24 139 9.7 22.5 0.00 0.00 0.00 36 1006.4
20260504230255 24 195 8.0 22.5 0.00 0.00 0.00 35 1006.4
20260504225756 24 206 8.0 22.5 0.00 0.00 0.00 35 1006.4
20260504224755 25 224 8.0 20.9 0.00 0.00 0.00 35 1006.5
20260504224254 25 211 8.0 20.9 0.00 0.00 0.00 35 1006.6
20260504223255 25 217 9.7 24.1 0.00 0.00 0.00 35 1006.5
20260504222749 25 217 11.3 24.1 0.00 0.00 0.00 35 1006.5
20260504222250 25 233 12.9 24.1 0.00 0.00 0.00 34 1006.4
20260504221749 25 210 12.9 24.1 0.00 0.00 0.00 34 1006.5
20260504221248 25 210 9.7 24.1 0.00 0.00 0.00 34 1006.5
20260504220749 25 191 11.3 24.1 0.00 0.00 0.00 33 1006.6
20260504215749 25 186 9.7 22.5 0.00 0.00 0.00 33 1006.6
20260504214743 25 226 11.3 29.0 0.00 0.00 0.00 33 1006.5
20260504214243 25 204 9.7 29.0 0.00 0.00 0.00 32 1006.5
20260504213741 25 249 9.7 29.0 0.00 0.00 0.00 32 1006.4
20260504212743 25 204 8.0 24.1 0.00 0.00 0.00 31 1006.5
20260504212243 25 167 8.0 20.9 0.00 0.00 0.00 31 1006.5
20260504211737 25 212 9.7 30.6 0.00 0.00 0.00 31 1006.5
20260504211236 25 197 9.7 29.0 0.00 0.00 0.00 31 1006.5
20260504210735 25 211 8.0 29.0 0.00 0.00 0.00 31 1006.4
20260504210236 25 257 11.3 25.7 0.00 0.00 0.00 31 1006.4
20260504205736 25 231 11.3 25.7 0.00 0.00 0.00 31 1006.5
20260504205238 25 225 9.7 24.1 0.00 0.00 0.00 31 1006.5
20260504204234 25 189 9.7 22.5 0.00 0.00 0.00 30 1006.4
20260504203232 25 204 8.0 24.1 0.00 0.00 0.00 30 1006.6
20260504202732 25 165 8.0 29.0 0.00 0.00 0.00 31 1006.7
20260504201234 25 225 9.7 30.6 0.00 0.00 0.00 31 1006.9
20260504200727 25 186 9.7 29.0 0.00 0.00 0.00 31 1007.0
20260504200226 25 235 11.3 25.7 0.00 0.00 0.00 31 1007.0
20260504195227 25 205 8.0 27.4 0.00 0.00 0.00 30 1007.0
20260504194725 25 203 8.0 25.7 0.00 0.00 0.00 30 1007.1
20260504194226 25 201 8.0 20.9 0.00 0.00 0.00 31 1007.2
20260504193726 25 200 9.7 22.5 0.00 0.00 0.00 31 1007.3
20260504193228 25 160 8.0 22.5 0.00 0.00 0.00 31 1007.3
20260504192725 25 252 8.0 22.5 0.00 0.00 0.00 32 1007.4
20260504192226 25 195 8.0 22.5 0.00 0.00 0.00 31 1007.7
20260504191725 25 177 9.7 24.1 0.00 0.00 0.00 32 1007.8
20260504191224 25 203 11.3 24.1 0.00 0.00 0.00 32 1007.9
20260504190723 25 173 8.0 20.9 0.00 0.00 0.00 31 1008.0
20260504190224 25 173 6.4 20.9 0.00 0.00 0.00 31 1008.1
20260504185725 25 136 6.4 20.9 0.00 0.00 0.00 31 1008.2
20260504185225 25 148 8.0 20.9 0.00 0.00 0.00 31 1008.3
20260504184717 24 198 9.7 24.1 0.00 0.00 0.00 32 1008.3
20260504184219 24 212 9.7 24.1 0.00 0.00 0.00 32 1008.4
20260504183718 24 163 6.4 22.5 0.00 0.00 0.00 33 1008.4
20260504183219 24 195 6.4 19.3 0.00 0.00 0.00 33 1008.5
20260504182719 24 210 9.7 20.9 0.00 0.00 0.00 33 1008.7
20260504182218 24 205 9.7 24.1 0.00 0.00 0.00 33 1008.7
20260504181719 23 214 9.7 24.1 0.00 0.00 0.00 33 1008.7
20260504181219 24 143 8.0 19.3 0.00 0.00 0.00 33 1008.9
20260504180719 23 179 9.7 22.5 0.00 0.00 0.00 33 1008.9
20260504180218 23 242 8.0 22.5 0.00 0.00 0.00 34 1008.9
20260504175720 24 204 6.4 14.5 0.00 0.00 0.00 33 1009.0
20260504175217 23 170 6.4 19.3 0.00 0.00 0.00 34 1009.1
20260504174718 23 224 8.0 19.3 0.00 0.00 0.00 34 1009.3
20260504174219 23 226 6.4 19.3 0.00 0.00 0.00 34 1009.2
20260504173218 23 214 6.4 22.5 0.00 0.00 0.00 35 1009.4
20260504172714 23 160 6.4 22.5 0.00 0.00 0.00 35 1009.4
20260504172214 23 287 9.7 24.1 0.00 0.00 0.00 35 1009.5
20260504171708 22 225 11.3 24.1 0.00 0.00 0.00 35 1009.6
20260504171203 22 194 8.0 20.9 0.00 0.00 0.00 35 1009.7
20260504170701 23 143 6.4 17.7 0.00 0.00 0.00 34 1009.8
20260504170201 22 207 8.0 17.7 0.00 0.00 0.00 35 1009.8
20260504160152 22 197 6.4 17.7 0.00 0.00 0.00 34 1010.4
20260504150647 20 279 3.2 11.3 0.00 0.00 0.00 40 1010.9
20260504150148 20 227 3.2 9.7 0.00 0.00 0.00 42 1011.0
20260504141146 17 187 1.6 9.7 0.00 0.00 0.00 45 1011.2
20260504140644 17 278 1.6 9.7 0.00 0.00 0.00 46 1011.3
20260504140143 17 198 3.2 11.3 0.00 0.00 0.00 46 1011.4
20260504130635 15 215 3.2 11.3 0.00 0.00 0.00 54 1011.8
20260504130135 15 174 3.2 14.5 0.00 0.00 0.00 54 1011.8
20260504120128 13 184 6.4 20.9 0.00 0.00 0.00 57 1012.0
20260504110624 11 203 3.2 12.9 0.00 0.00 0.00 60 1012.2
20260504110124 11 298 3.2 9.7 0.00 0.00 0.00 61 1012.3
20260504100116 12 195 0.0 6.4 0.00 0.00 0.00 60 1012.1
20260504090110 12 198 1.6 16.1 0.00 0.00 0.00 57 1012.3
20260504081557 12 210 3.2 9.7 0.00 0.00 0.00 55 1012.6
20260504081055 12 233 3.2 9.7 0.00 0.00 0.00 55 1012.5
20260504080555 12 248 3.2 11.3 0.00 0.00 0.00 55 1012.5